Time,TemperatureF,DewpointF,PressureIn,WindDirection,WindDirectionDegrees,WindSpeedMPH,WindSpeedGustMPH,Humidity,HourlyPrecipIn,Conditions,Clouds,dailyrainin,SoftwareType,DateUTC
2013-08-21 00:01:00,75.9,74.4,29.96,NE,45,0.0,-999.0,95,-99.99,,,0.00,Acu-Link.com,2013-08-21 04:01:00,
2013-08-21 00:16:00,75.6,74.0,29.96,NNW,337,0.0,-999.0,95,-99.99,,,0.00,Acu-Link.com,2013-08-21 04:16:00,
2013-08-21 00:31:00,75.4,73.8,29.95,ESE,112,0.0,-999.0,95,-99.99,,,0.00,Acu-Link.com,2013-08-21 04:31:00,
2013-08-21 00:46:00,75.2,73.7,29.95,SE,135,0.0,-999.0,95,-99.99,,,0.00,Acu-Link.com,2013-08-21 04:46:00,
2013-08-21 01:02:00,74.8,73.3,29.94,SE,135,0.0,-999.0,95,-99.99,,,0.00,Acu-Link.com,2013-08-21 05:02:00,
2013-08-21 01:17:00,74.7,73.1,29.94,NNE,22,0.0,-999.0,95,-99.99,,,0.00,Acu-Link.com,2013-08-21 05:17:00,
2013-08-21 01:32:00,74.7,73.1,29.93,West,270,0.0,-999.0,95,-99.99,,,0.00,Acu-Link.com,2013-08-21 05:32:00,
2013-08-21 01:48:00,74.5,73.3,29.94,WNW,292,0.0,-999.0,96,-99.99,,,0.00,Acu-Link.com,2013-08-21 05:48:00,
2013-08-21 02:03:00,74.5,73.3,29.94,WNW,292,0.0,-999.0,96,-99.99,,,0.00,Acu-Link.com,2013-08-21 06:03:00,
2013-08-21 02:18:00,74.5,73.3,29.94,SSE,157,0.0,-999.0,96,-99.99,,,0.00,Acu-Link.com,2013-08-21 06:18:00,
2013-08-21 02:33:00,74.3,73.1,29.93,SE,135,0.0,-999.0,96,-99.99,,,0.00,Acu-Link.com,2013-08-21 06:33:00,
2013-08-21 02:49:00,74.1,72.9,29.93,West,270,0.0,-999.0,96,-99.99,,,0.00,Acu-Link.com,2013-08-21 06:49:00,
2013-08-21 03:04:00,74.1,72.9,29.93,SSE,157,0.0,-999.0,96,-99.99,,,0.00,Acu-Link.com,2013-08-21 07:04:00,
2013-08-21 03:19:00,74.1,72.9,29.92,South,180,0.0,-999.0,96,-99.99,,,0.00,Acu-Link.com,2013-08-21 07:19:00,
2013-08-21 03:34:00,73.9,72.7,29.92,ESE,112,0.0,-999.0,96,-99.99,,,0.00,Acu-Link.com,2013-08-21 07:34:00,
2013-08-21 03:50:00,73.8,59.0,29.92,SSE,157,0.0,-999.0,60,-99.99,,,0.00,Acu-Link.com,2013-08-21 07:50:00,
2013-08-21 04:05:00,73.8,72.5,29.93,SSE,157,0.0,-999.0,96,-99.99,,,0.00,Acu-Link.com,2013-08-21 08:05:00,
2013-08-21 04:20:00,73.8,72.5,29.93,SE,135,0.0,-999.0,96,-99.99,,,0.00,Acu-Link.com,2013-08-21 08:20:00,
2013-08-21 04:35:00,73.6,72.4,29.93,ESE,112,0.0,-999.0,96,-99.99,,,0.00,Acu-Link.com,2013-08-21 08:35:00,
2013-08-21 04:50:00,73.6,72.4,29.92,ESE,112,0.0,-999.0,96,-99.99,,,0.00,Acu-Link.com,2013-08-21 08:50:00,
2013-08-21 05:06:00,73.6,72.7,29.93,ESE,112,0.0,-999.0,97,-99.99,,,0.00,Acu-Link.com,2013-08-21 09:06:00,
2013-08-21 05:21:00,73.6,72.7,29.92,West,270,0.0,-999.0,97,-99.99,,,0.00,Acu-Link.com,2013-08-21 09:21:00,
2013-08-21 05:36:00,73.6,72.7,29.92,SSE,157,0.0,-999.0,97,-99.99,,,0.00,Acu-Link.com,2013-08-21 09:36:00,
2013-08-21 05:51:00,73.4,72.5,29.93,SSE,157,0.0,-999.0,97,-99.99,,,0.00,Acu-Link.com,2013-08-21 09:51:00,
2013-08-21 06:06:00,73.4,72.5,29.92,WNW,292,0.0,-999.0,97,-99.99,,,0.00,Acu-Link.com,2013-08-21 10:06:00,
2013-08-21 06:22:00,73.4,72.5,29.93,SW,225,0.0,-999.0,97,-99.99,,,0.00,Acu-Link.com,2013-08-21 10:22:00,
2013-08-21 06:37:00,73.4,72.5,29.94,WNW,292,0.0,-999.0,97,-99.99,,,0.00,Acu-Link.com,2013-08-21 10:37:00,
2013-08-21 06:52:00,73.2,72.3,29.94,WNW,292,0.0,-999.0,97,-99.99,,,0.00,Acu-Link.com,2013-08-21 10:52:00,
2013-08-21 07:08:00,73.2,72.3,29.95,WSW,247,0.0,-999.0,97,-99.99,,,0.00,Acu-Link.com,2013-08-21 11:08:00,
2013-08-21 07:23:00,73.2,72.3,29.95,West,270,0.0,-999.0,97,-99.99,,,0.00,Acu-Link.com,2013-08-21 11:23:00,
2013-08-21 07:38:00,73.6,72.7,29.96,South,180,0.0,-999.0,97,-99.99,,,0.00,Acu-Link.com,2013-08-21 11:38:00,
2013-08-21 07:53:00,74.5,73.6,29.96,SSE,157,0.0,-999.0,97,-99.99,,,0.00,Acu-Link.com,2013-08-21 11:53:00,
2013-08-21 08:09:00,75.9,75.0,29.96,WNW,292,0.0,-999.0,97,-99.99,,,0.00,Acu-Link.com,2013-08-21 12:09:00,
2013-08-21 08:24:00,78.1,75.9,29.96,SSE,157,0.0,-999.0,93,-99.99,,,0.00,Acu-Link.com,2013-08-21 12:24:00,
2013-08-21 08:39:00,79.5,76.7,29.97,NNW,337,0.0,-999.0,91,-99.99,,,0.00,Acu-Link.com,2013-08-21 12:39:00,
2013-08-21 08:54:00,79.2,76.6,29.97,SSE,157,0.0,-999.0,92,-99.99,,,0.00,Acu-Link.com,2013-08-21 12:54:00,
2013-08-21 09:09:00,78.6,76.7,29.98,ESE,112,0.0,-999.0,94,-99.99,,,0.00,Acu-Link.com,2013-08-21 13:09:00,
2013-08-21 09:24:00,80.4,76.9,29.99,ESE,112,0.0,-999.0,89,-99.99,,,0.00,Acu-Link.com,2013-08-21 13:24:00,
2013-08-21 09:39:00,83.1,75.9,29.99,SSE,157,0.0,-999.0,79,-99.99,,,0.00,Acu-Link.com,2013-08-21 13:39:00,
2013-08-21 09:55:00,83.7,76.8,29.98,East,90,0.0,-999.0,80,-99.99,,,0.00,Acu-Link.com,2013-08-21 13:55:00,
2013-08-21 10:10:00,85.6,79.5,29.98,ESE,112,2.7,-999.0,82,-99.99,,,0.00,Acu-Link.com,2013-08-21 14:10:00,
2013-08-21 10:25:00,88.3,80.2,29.99,SSE,157,2.2,-999.0,77,-99.99,,,0.00,Acu-Link.com,2013-08-21 14:25:00,
2013-08-21 10:40:00,88.9,79.5,29.99,South,180,2.2,-999.0,74,-99.99,,,0.00,Acu-Link.com,2013-08-21 14:40:00,
2013-08-21 10:56:00,88.3,79.0,29.98,SSE,157,2.2,-999.0,74,-99.99,,,0.00,Acu-Link.com,2013-08-21 14:56:00,
2013-08-21 11:11:00,89.1,78.4,29.99,SSE,157,5.8,-999.0,71,-99.99,,,0.00,Acu-Link.com,2013-08-21 15:11:00,
2013-08-21 11:26:00,88.7,78.9,29.99,SE,135,0.0,-999.0,73,-99.99,,,0.00,Acu-Link.com,2013-08-21 15:26:00,
2013-08-21 11:41:00,86.9,78.8,30.00,SSE,157,3.1,-999.0,77,-99.99,,,0.00,Acu-Link.com,2013-08-21 15:41:00,
2013-08-21 11:57:00,86.0,78.3,29.99,SE,135,2.7,-999.0,78,-99.99,,,0.00,Acu-Link.com,2013-08-21 15:57:00,
2013-08-21 12:12:00,84.4,78.6,29.98,SE,135,0.0,-999.0,83,-99.99,,,0.00,Acu-Link.com,2013-08-21 16:12:00,
2013-08-21 12:27:00,83.1,78.8,29.98,NE,45,0.0,-999.0,87,-99.99,,,0.00,Acu-Link.com,2013-08-21 16:27:00,
2013-08-21 12:42:00,81.7,78.1,29.97,South,180,2.2,-999.0,89,-99.99,,,0.00,Acu-Link.com,2013-08-21 16:42:00,
2013-08-21 12:57:00,81.7,78.8,29.99,SW,225,0.0,-999.0,91,-99.99,,,0.00,Acu-Link.com,2013-08-21 16:57:00,
2013-08-21 13:13:00,81.9,79.3,29.99,South,180,0.0,-999.0,92,-99.99,,,0.00,Acu-Link.com,2013-08-21 17:13:00,
2013-08-21 13:28:00,81.9,79.3,29.99,NNW,337,0.0,-999.0,92,-99.99,,,0.00,Acu-Link.com,2013-08-21 17:28:00,
2013-08-21 13:43:00,81.1,78.3,29.98,SSE,157,1.1,-999.0,91,-99.99,,,0.00,Acu-Link.com,2013-08-21 17:43:00,
2013-08-21 13:58:00,81.0,78.1,29.98,East,90,0.0,-999.0,91,-99.99,,,0.00,Acu-Link.com,2013-08-21 17:58:00,
2013-08-21 14:13:00,81.0,78.1,29.97,ENE,67,0.0,-999.0,91,-99.99,,,0.00,Acu-Link.com,2013-08-21 18:13:00,
2013-08-21 14:28:00,81.3,78.8,29.97,SE,135,2.7,-999.0,92,-99.99,,,0.00,Acu-Link.com,2013-08-21 18:28:00,
2013-08-21 14:44:00,82.0,78.8,29.97,East,90,0.0,-999.0,90,-99.99,,,0.00,Acu-Link.com,2013-08-21 18:44:00,
2013-08-21 14:59:00,82.9,79.0,29.98,ESE,112,1.6,-999.0,88,-99.99,,,0.00,Acu-Link.com,2013-08-21 18:59:00,
2013-08-21 15:14:00,83.5,79.2,29.97,SSE,157,4.3,-999.0,87,-99.99,,,0.00,Acu-Link.com,2013-08-21 19:14:00,
2013-08-21 15:29:00,84.9,79.2,29.96,ESE,112,1.1,-999.0,83,-99.99,,,0.00,Acu-Link.com,2013-08-21 19:29:00,
2013-08-21 15:45:00,84.9,77.7,29.96,ESE,112,2.2,-999.0,79,-99.99,,,0.00,Acu-Link.com,2013-08-21 19:45:00,
2013-08-21 16:00:00,84.9,77.7,29.95,ESE,112,0.0,-999.0,79,-99.99,,,0.00,Acu-Link.com,2013-08-21 20:00:00,
2013-08-21 16:15:00,90.5,78.0,29.93,South,180,3.8,-999.0,67,-99.99,,,0.00,Acu-Link.com,2013-08-21 20:15:00,
2013-08-21 16:30:00,93.2,78.2,29.92,East,90,1.1,-999.0,62,-99.99,,,0.00,Acu-Link.com,2013-08-21 20:30:00,
2013-08-21 16:45:00,91.8,76.8,29.92,SSE,157,4.3,-999.0,62,-99.99,,,0.00,Acu-Link.com,2013-08-21 20:45:00,
2013-08-21 17:01:00,91.4,78.4,29.92,SSE,157,2.2,-999.0,66,-99.99,,,0.00,Acu-Link.com,2013-08-21 21:01:00,
2013-08-21 17:16:00,90.3,77.8,29.93,SSW,202,3.8,-999.0,67,-99.99,,,0.00,Acu-Link.com,2013-08-21 21:16:00,
2013-08-21 17:31:00,89.6,77.6,29.92,East,90,1.1,-999.0,68,-99.99,,,0.00,Acu-Link.com,2013-08-21 21:31:00,
2013-08-21 17:47:00,87.3,77.5,29.93,NNE,22,1.1,-999.0,73,-99.99,,,0.00,Acu-Link.com,2013-08-21 21:47:00,
2013-08-21 18:02:00,85.3,76.4,29.93,SE,135,1.6,-999.0,75,-99.99,,,0.00,Acu-Link.com,2013-08-21 22:02:00,
2013-08-21 18:17:00,84.4,76.4,29.94,SE,135,1.1,-999.0,77,-99.99,,,0.00,Acu-Link.com,2013-08-21 22:17:00,
2013-08-21 18:32:00,84.0,77.2,29.93,SE,135,0.0,-999.0,80,-99.99,,,0.00,Acu-Link.com,2013-08-21 22:32:00,
2013-08-21 18:48:00,83.8,77.4,29.93,NE,45,0.0,-999.0,81,-99.99,,,0.00,Acu-Link.com,2013-08-21 22:48:00,
2013-08-21 19:03:00,82.8,77.1,29.93,SE,135,1.1,-999.0,83,-99.99,,,0.00,Acu-Link.com,2013-08-21 23:03:00,
2013-08-21 19:18:00,82.6,77.2,29.92,ENE,67,0.0,-999.0,84,-99.99,,,0.00,Acu-Link.com,2013-08-21 23:18:00,
2013-08-21 19:33:00,82.2,77.2,29.92,SE,135,2.7,-999.0,85,-99.99,,,0.00,Acu-Link.com,2013-08-21 23:33:00,
2013-08-21 19:49:00,82.2,77.6,29.92,East,90,0.0,-999.0,86,-99.99,,,0.00,Acu-Link.com,2013-08-21 23:49:00,
2013-08-21 20:04:00,81.5,77.2,29.93,SSE,157,1.6,-999.0,87,-99.99,,,0.00,Acu-Link.com,2013-08-22 00:04:00,
2013-08-21 20:19:00,81.3,77.4,29.93,SE,135,0.0,-999.0,88,-99.99,,,0.00,Acu-Link.com,2013-08-22 00:19:00,
2013-08-21 20:35:00,81.1,77.2,29.94,SE,135,0.0,-999.0,88,-99.99,,,0.00,Acu-Link.com,2013-08-22 00:35:00,
2013-08-21 20:50:00,80.6,77.4,29.94,SSE,157,0.0,-999.0,90,-99.99,,,0.00,Acu-Link.com,2013-08-22 00:50:00,
2013-08-21 21:05:00,80.4,77.2,29.93,SSE,157,0.0,-999.0,90,-99.99,,,0.00,Acu-Link.com,2013-08-22 01:05:00,
2013-08-21 21:20:00,79.9,77.0,29.93,North,0,0.0,-999.0,91,-99.99,,,0.00,Acu-Link.com,2013-08-22 01:20:00,
2013-08-21 21:35:00,79.3,76.8,29.93,East,90,0.0,-999.0,92,-99.99,,,0.00,Acu-Link.com,2013-08-22 01:35:00,
2013-08-21 21:50:00,79.0,76.4,29.94,SE,135,0.0,-999.0,92,-99.99,,,0.00,Acu-Link.com,2013-08-22 01:50:00,
2013-08-21 22:06:00,78.8,76.6,29.94,North,0,0.0,-999.0,93,-99.99,,,0.00,Acu-Link.com,2013-08-22 02:06:00,
2013-08-21 22:21:00,78.4,76.2,29.94,East,90,0.0,-999.0,93,-99.99,,,0.00,Acu-Link.com,2013-08-22 02:21:00,
2013-08-21 22:36:00,78.3,76.4,29.94,WNW,292,0.0,-999.0,94,-99.99,,,0.00,Acu-Link.com,2013-08-22 02:36:00,
2013-08-21 22:51:00,78.1,76.2,29.95,South,180,0.0,-999.0,94,-99.99,,,0.00,Acu-Link.com,2013-08-22 02:51:00,
2013-08-21 23:06:00,77.9,76.0,29.94,NNW,337,0.0,-999.0,94,-99.99,,,0.00,Acu-Link.com,2013-08-22 03:06:00,
2013-08-21 23:22:00,77.9,76.3,29.95,SW,225,0.0,-999.0,95,-99.99,,,0.00,Acu-Link.com,2013-08-22 03:22:00,
2013-08-21 23:37:00,77.7,76.2,29.95,NNE,22,0.0,-999.0,95,-99.99,,,0.00,Acu-Link.com,2013-08-22 03:37:00,
2013-08-21 23:52:00,77.7,76.5,29.95,NW,315,0.0,-999.0,96,-99.99,,,0.00,Acu-Link.com,2013-08-22 03:52:00,